Regional Weather Roundup
Issued by NWS

Home | Current Version | Previous Version | Graphics & Text | Print | Product List | Glossary On
Versions: 1 2 3 4 5 6 7 8 9 10 11 12 13 14 15 16 17 18 19 20 21 22 23 24 25 26 27
000
ASUS45 KBOI 051510
RWRID

IDAHO REGIONAL WEATHER ROUNDUP
NATIONAL WEATHER SERVICE BOISE ID
900 AM MDT THU MAY 05 2016

NOTE: "FAIR" INDICATES FEW OR NO CLOUDS BELOW 12000 FEET
WITH NO SIGNIFICANT WEATHER AND/OR OBSTRUCTIONS TO VISIBILITY

IDZ012-014-051600-
SOUTHWEST IDAHO


CITY           SKY/WX    TMP DP  RH WIND       PRES   REMARKS
BOISE          CLOUDY    58  45  62 CALM      29.87F
CALDWELL       CLOUDY    58  46  64 W7        29.88S
$$

IDZ016-017-051600-
SOUTHCENTRAL IDAHO


CITY           SKY/WX    TMP DP  RH WIND       PRES   REMARKS
BURLEY         PTSUNNY   55  45  68 CALM      29.92R
JEROME         PTSUNNY   55  43  63 S9        29.94R
TWIN FALLS     PTSUNNY   56  43  61 SW12      29.93R
$$

IDZ019>023-051600-
SOUTHEAST IDAHO


CITY           SKY/WX    TMP DP  RH WIND       PRES   REMARKS
IDAHO FALLS    CLOUDY    57  41  55 N7        29.99S
POCATELLO      CLOUDY    54  43  66 E3        29.96S
REXBURG        CLOUDY    53  38  56 E5        30.01S
$$

IDZ006-010-011-018-031-032-051600-
CENTRAL IDAHO MOUNTAINS


CITY           SKY/WX    TMP DP  RH WIND       PRES   REMARKS
MCCALL         MOSUNNY   54  41  61 VRB6      29.94F
HAILEY         MOSUNNY   52  36  54 NW12      30.00F
STANLEY          N/A     44  32  62 NE3       30.05S
SALMON         CLOUDY    54  36  50 CALM      29.97F
CHALLIS        PTSUNNY   51  34  52 CALM      30.00F
$$

IDZ002-004-006-007-026-051600-
NORTHERN IDAHO


CITY           SKY/WX    TMP DP  RH WIND       PRES   REMARKS
LEWISTON       MOSUNNY   60  52  74 W6        29.92F
LOWELL           N/A     57  51  80 CALM      29.93F
COEUR D`ALENE  PTSUNNY   55  52  88 S6        29.93F
MULLAN PASS    CLOUDY    46  41  82 CALM      30.02R
$$




USA.gov is the U.S. government's official web portal to all federal, state and local government web resources and services.